User: anonymous   Login
Location: Unspecified
(52.4361°N, 0.0000°E)
Time: 20:37:44
(UTC+00:00)
Language:

AAUSAT CUBESAT 2 - Orbit

View from above orbital plane
View from above orbital plane
View from above satellite
View from above satellite

Ground track
Ground track

The orbit data is extracted from the following two-line orbital elements,

1 32788U 08021F   19197.02939192  .00000044  00000-0  90228-5 0  9995
2 32788  97.4958 211.5511 0013373 106.2565 254.0128 14.94745937609000
Epoch (UTC): 16 July 2019 00:42:19
Eccentricity: 0.0013373
inclination: 97.4958°
perigee height: 574 km
apogee height: 592 km
right ascension of ascending node: 211.5511°
argument of perigee: 106.2565°
revolutions per day: 14.94745937
mean anomaly at epoch: 254.0128°
orbit number at epoch: 60900

The dashed part of the orbit path shows where the satellite is in the earth's shadow,  

DLR